📊 Raw Sensor Data

Showing records 40426 to 40450 of 84,963 total

ID Distance (ft) Battery V Battery A Int Temp (°F) Int Humid (%) Ext Temp (°F) Solar V RSSI SNR Time Stamp
44550 15.5 3.93 -5 54 44 55 0.00 -66 8 06/26/2025 02:00 AM
44549 15.5 3.82 -5 55 44 55 0.00 -66 8 06/26/2025 01:45 AM
44548 15.5 3.84 -5 55 44 57 0.00 -66 8 06/26/2025 01:30 AM
44547 15.5 3.93 -5 55 44 56 0.00 -67 6 06/26/2025 01:15 AM
44546 15.5 3.84 -5 56 44 57 0.00 -67 8 06/26/2025 01:00 AM
44545 15.5 3.84 -5 56 44 57 0.00 -67 8 06/26/2025 12:45 AM
44544 15.5 3.85 -5 56 44 57 0.00 -65 7 06/26/2025 12:30 AM
44543 15.5 3.94 -5 57 45 58 0.00 -66 8 06/26/2025 12:00 AM
44542 15.5 3.85 -5 57 45 59 0.00 -66 8 06/25/2025 11:45 PM
44541 15.5 3.85 -5 58 45 59 0.00 -67 8 06/25/2025 11:30 PM
44540 15.5 3.85 -5 58 46 59 0.00 -66 8 06/25/2025 11:15 PM
44539 15.5 3.94 -5 58 46 59 0.00 -70 8 06/25/2025 11:00 PM
44538 15.5 3.85 -5 59 47 59 0.10 -70 8 06/25/2025 10:45 PM
44537 15.5 3.95 -5 59 47 60 0.00 -70 9 06/25/2025 10:30 PM
44536 15.5 3.86 -5 60 48 61 0.00 -70 8 06/25/2025 10:15 PM
44535 15.5 3.86 -5 61 48 62 0.00 -70 8 06/25/2025 10:00 PM
44534 15.5 3.95 -5 62 50 63 0.00 -70 8 06/25/2025 09:45 PM
44533 15.5 3.95 -5 63 51 63 0.00 -69 8 06/25/2025 09:30 PM
44532 15.5 3.88 -5 64 53 64 0.00 -70 8 06/25/2025 09:15 PM
44531 15.5 3.88 -5 66 55 65 0.00 -69 8 06/25/2025 09:00 PM
44530 15.5 3.88 -5 69 56 67 1.40 -72 8 06/25/2025 08:45 PM
44529 15.6 3.94 -10 74 56 69 4.30 -71 7 06/25/2025 08:30 PM
44528 15.6 3.89 0 78 55 73 4.50 -70 8 06/25/2025 08:15 PM
44527 15.7 3.98 0 83 54 78 4.50 -69 8 06/25/2025 08:00 PM
44526 15.7 3.99 7 86 53 79 4.50 -71 7 06/25/2025 07:45 PM